Regional Weather Roundup
Issued by NWS

Home | Current Version | Previous Version | Graphics & Text | Print | Product List | Glossary On
Versions: 1 2 3 4 5 6 7 8 9 10 11 12 13 14 15 16 17 18 19 20 21 22 23 24 25 26 27 28 29 30 31 32 33 34 35 36 37 38 39 40 41 42 43 44 45 46 47 48 49 50
000
ASUS43 KLMK 061502
RWRKY
KENTUCKY REGIONAL WEATHER ROUNDUP
NATIONAL WEATHER SERVICE LOUISVILLE KY
1000 AM EST FRI MAR 06 2015

NOTE "FAIR" INDICATES FEW OR NO CLOUDS BELOW 12,000 FEET
WITH NO SIGNIFICANT WEATHER AND/OR OBSTRUCTIONS TO VISIBILITY.

KYZ001>023-026-027-061>063-070>075-061600-
WESTERN AND SOUTH CENTRAL KENTUCKY

CITY           SKY/WX    TMP DP  RH WIND       PRES   REMARKS
PADUCAH        SUNNY     13   9  84 SW3       30.62R
HENDERSON      SUNNY     10   5  79 CALM      30.61R
OWENSBORO      SUNNY     10   6  84 S5        30.60S WCI   2
HOPKINSVILLE   SUNNY      9   5  84 CALM      30.60R
BOWLING GREEN  SUNNY     13   8  81 CALM      30.60S
GLASGOW        NOT AVBL
$$

KYZ024-025-028>034-038-045-046-053-061600-
NORTH CENTRAL KENTUCKY

CITY           SKY/WX    TMP DP  RH WIND       PRES   REMARKS
LOUISVILLE/SDF MOSUNNY   17   8  67 SE6       30.59S WCI   9
LOUISVILLE/LOU SUNNY     17   9  70 S6        30.59S WCI   9
FORT KNOX      SUNNY     10   7  85 E5        30.54F WCI   2
$$

KYZ035>037-039>044-047>052-055>060-089>105-061600-
NORTHEAST KENTUCKY

CITY           SKY/WX    TMP DP  RH WIND       PRES   REMARKS
LEXINGTON      SUNNY     14  10  84 S6        30.56R WCI   5
COVINGTON      MOSUNNY   16   6  65 S6        30.56R WCI   7
FRANKFORT      SUNNY     12   6  77 S7        30.57R WCI   1
$$

KYZ054-064>069-076>088-106>120-061600-
SOUTHEAST KENTUCKY

CITY           SKY/WX    TMP DP  RH WIND       PRES   REMARKS
JACKSON        SUNNY     17  13  84 VRB3      30.52R
LONDON         SUNNY     19  14  81 VRB3      30.53R
SOMERSET       NOT AVBL
MIDDLESBORO    SUNNY     20  11  66 CALM      30.52F
MONTICELLO     SUNNY     15  12  88 CALM      30.58S
$$



USA.gov is the U.S. government's official web portal to all federal, state and local government web resources and services.